Big Rapids, MI

11:20 PM EST on February 24, 2018 (GMT -0500)
Roben-Hood

Weather History for KRQB - August, 2014

Change the Weather History Date:

Tuesday, August 12, 2014

  Actual Average Record
Temperature  
Mean Temperature 60 °F -  
Max Temperature 64 °F 79 °F 95 °F (1988)
Min Temperature 54 °F 51 °F 40 °F (1982)
Degree Days  
Heating Degree Days 6    
Growing Degree Days 10 (Base 50)    
Moisture  
Dew Point 61 °F    
Average Humidity 100    
Maximum Humidity 100    
Minimum Humidity 100    
Precipitation  
Precipitation 0.20 in - - ()
Sea Level Pressure  
Sea Level Pressure 29.76 in    
Wind  
Wind Speed 5 mph (NW)    
Max Wind Speed 14 mph    
Max Gust Speed 23 mph    
Visibility 8 miles    
Events Rain    
Averages and records for this station are not official NWS values.
T = Trace of Precipitation, MM = Missing Value Source: NWS Daily Summary

Daily Weather History Graph

Daily Weather History Graph

Search for Another Location

Airport or City:

Trip Planner

Search our weather history database for the weather conditions in past years. The results will help you decide how hot, cold, wet, or windy it might be!

Date:

Astronomy

Aug. 12, 2014 Rise Set
Actual Time 6:43 AM EDT 8:50 PM EDT
Civil Twilight 6:11 AM EDT 9:21 PM EDT
Nautical Twilight 5:32 AM EDT 10:00 PM EDT
Astronomical Twilight 4:50 AM EDT 10:42 PM EDT
Moon 9:49 PM EDT (8/12) 9:05 AM EDT (8/12)
Length of Visible Light 15h 09m
Length of Day
14h 07m
Waning Gibbous, 95% of the Moon is Illuminated
Aug 12
Waning Gibbous
Aug 17
Last Quarter
Aug 25
New
Sep 2
First Quarter
Sep 8
Full

Hourly Weather History & Observations

Time (EDT) Temp. Dew Point Humidity Pressure Visibility Wind Dir Wind Speed Gust Speed Precip Events Conditions
12:14 AM 64.4 °F 64.4 °F 100% 29.74 in 4.0 mi Calm Calm - N/A   Mostly Cloudy
12:35 AM 63.9 °F 63.9 °F 100% 29.74 in 3.0 mi Calm Calm - N/A   Scattered Clouds
12:54 AM 62.4 °F 62.4 °F 100% 29.74 in 2.5 mi Calm Calm - N/A   Scattered Clouds
1:34 AM 61.9 °F 61.9 °F 100% 29.74 in 2.0 mi WSW 3.5 mph - N/A   Mostly Cloudy
1:54 AM 62.6 °F 62.6 °F 100% 29.74 in 2.5 mi Calm Calm - N/A   Overcast
2:14 AM 63.0 °F 63.0 °F 100% 29.73 in 3.0 mi NNW 4.6 mph - N/A   Overcast
2:35 AM 63.5 °F 63.5 °F 100% 29.72 in 5.0 mi NNW 4.6 mph - N/A   Overcast
2:54 AM 63.1 °F 63.1 °F 100% 29.71 in 5.0 mi Calm Calm - N/A   Overcast
3:15 AM 63.0 °F 63.0 °F 100% 29.71 in 7.0 mi Calm Calm - N/A   Mostly Cloudy
3:35 AM 63.1 °F 63.1 °F 100% 29.71 in 7.0 mi Calm Calm - N/A   Mostly Cloudy
3:54 AM 63.0 °F 63.0 °F 100% 29.70 in 5.0 mi WNW 3.5 mph - N/A   Overcast
4:15 AM 62.8 °F 62.8 °F 100% 29.69 in 7.0 mi NNW 5.8 mph - N/A   Overcast
4:35 AM 63.0 °F 63.0 °F 100% 29.69 in 7.0 mi NW 5.8 mph - N/A   Overcast
4:54 AM 63.0 °F 63.0 °F 100% 29.69 in 7.0 mi NW 3.5 mph - N/A   Overcast
5:35 AM 63.0 °F 63.0 °F 100% 29.69 in 7.0 mi North 5.8 mph - 0.03 in Rain Rain
6:15 AM 62.8 °F 62.8 °F 100% 29.68 in 7.0 mi NNW 5.8 mph - N/A Rain Rain
6:34 AM 62.8 °F 62.8 °F 100% 29.69 in 7.0 mi NNW 5.8 mph - N/A   Light Drizzle
6:54 AM 62.8 °F 62.8 °F 100% 29.69 in 7.0 mi NNW 6.9 mph - N/A   Overcast
7:14 AM 62.8 °F 62.8 °F 100% 29.69 in 4.0 mi NNW 4.6 mph - 0.02 in Rain Light Rain
7:34 AM 63.0 °F 63.0 °F 100% 29.69 in 4.0 mi NNW 4.6 mph - 0.03 in Rain Light Rain
7:55 AM 63.0 °F 63.0 °F 100% 29.69 in 5.0 mi WNW 3.5 mph - 0.03 in Rain Light Rain
8:14 AM 63.0 °F 63.0 °F 100% 29.69 in 5.0 mi NNW 6.9 mph - N/A   Scattered Clouds
8:34 AM 63.5 °F 63.5 °F 100% 29.69 in 7.0 mi NNW 5.8 mph - N/A   Mostly Cloudy
8:55 AM 63.7 °F 63.7 °F 100% 29.69 in 10.0 mi NNW 4.6 mph - N/A   Mostly Cloudy
9:14 AM 64.2 °F 64.2 °F 100% 29.69 in 10.0 mi NNW 5.8 mph - N/A   Overcast
9:34 AM 64.8 °F 64.8 °F 100% 29.69 in 10.0 mi NW 6.9 mph - N/A   Overcast
9:55 AM 64.8 °F 64.8 °F 100% 29.69 in 10.0 mi NNW 8.1 mph - N/A   Overcast
10:14 AM 64.6 °F 64.6 °F 100% 29.70 in 7.0 mi NNW 6.9 mph - N/A Rain Rain
10:34 AM 64.6 °F 64.6 °F 100% 29.70 in 10.0 mi NW 13.8 mph 23.0 mph N/A Rain Light Rain
10:55 AM 63.7 °F 63.7 °F 100% 29.70 in 10.0 mi NNW 10.4 mph 23.0 mph N/A   Overcast
11:14 AM 63.5 °F 63.5 °F 100% 29.71 in 7.0 mi NW 10.4 mph - 0.01 in Rain Rain
11:34 AM 63.1 °F 63.1 °F 100% 29.72 in 7.0 mi NW 12.7 mph - 0.04 in Rain Rain
11:55 AM 63.1 °F 63.1 °F 100% 29.72 in 10.0 mi NW 8.1 mph 16.1 mph 0.04 in Rain Light Rain
1:35 PM 61.2 °F 61.2 °F 100% 29.75 in 7.0 mi NW 10.4 mph 17.3 mph 0.01 in Rain Rain
1:54 PM 61.0 °F 61.0 °F 100% 29.75 in 7.0 mi NNW 10.4 mph - 0.02 in Rain Light Rain
2:14 PM 61.0 °F 61.0 °F 100% 29.76 in 7.0 mi NW 9.2 mph - 0.01 in Rain Rain
2:35 PM 61.0 °F 61.0 °F 100% 29.77 in 7.0 mi NNW 8.1 mph - 0.02 in Rain Light Rain
2:54 PM 60.8 °F 60.8 °F 100% 29.77 in 10.0 mi NW 10.4 mph 18.4 mph 0.03 in Rain Light Rain
3:14 PM 60.6 °F 60.6 °F 100% 29.78 in 10.0 mi NW 8.1 mph - 0.02 in Rain Rain
3:35 PM 60.1 °F 60.1 °F 100% 29.79 in 10.0 mi NW 8.1 mph - 0.04 in Rain Light Rain
4:35 PM 59.2 °F 59.2 °F 100% 29.80 in 10.0 mi NW 9.2 mph - 0.01 in Rain Light Rain
4:54 PM 59.2 °F 59.2 °F 100% 29.81 in 10.0 mi NW 6.9 mph - 0.01 in Rain Light Rain
5:14 PM 59.0 °F 59.0 °F 100% 29.81 in 10.0 mi NW 6.9 mph 16.1 mph N/A   Overcast
5:35 PM 58.1 °F 58.1 °F 100% 29.82 in 10.0 mi NW 10.4 mph 17.3 mph N/A   Overcast
5:54 PM 57.7 °F 57.7 °F 100% 29.82 in 10.0 mi NNW 8.1 mph 16.1 mph N/A   Overcast
6:14 PM 57.7 °F 57.7 °F 100% 29.83 in 10.0 mi NW 10.4 mph 16.1 mph N/A   Overcast
6:35 PM 57.6 °F 57.6 °F 100% 29.83 in 10.0 mi WNW 6.9 mph - N/A   Overcast
6:54 PM 57.2 °F 57.2 °F 100% 29.84 in 7.0 mi NW 9.2 mph 16.1 mph N/A   Overcast
7:14 PM 56.7 °F 56.7 °F 100% 29.84 in 5.0 mi WNW 10.4 mph - N/A   Overcast
7:54 PM 56.5 °F 56.5 °F 100% 29.85 in 5.0 mi NW 8.1 mph - N/A   Overcast
8:14 PM 56.5 °F 56.5 °F 100% 29.86 in 10.0 mi NW 8.1 mph - N/A   Overcast
8:35 PM 56.5 °F 56.5 °F 100% 29.86 in 10.0 mi NW 6.9 mph - N/A   Overcast
8:54 PM 56.7 °F 56.7 °F 100% 29.87 in 10.0 mi NW 4.6 mph - N/A   Overcast
9:15 PM 56.8 °F 56.8 °F 100% 29.87 in 10.0 mi NW 8.1 mph - N/A   Overcast
9:35 PM 56.8 °F 56.8 °F 100% 29.88 in 10.0 mi NW 6.9 mph - N/A   Overcast
9:54 PM 56.8 °F 56.8 °F 100% 29.89 in 10.0 mi NNW 6.9 mph - N/A   Overcast
10:15 PM 56.5 °F 56.5 °F 100% 29.89 in 10.0 mi NNW 6.9 mph - N/A   Overcast
10:54 PM 55.6 °F 55.6 °F 100% 29.89 in 10.0 mi NW 4.6 mph - N/A   Mostly Cloudy
11:15 PM 55.8 °F 55.8 °F 100% 29.89 in 10.0 mi West 5.8 mph - N/A   Mostly Cloudy
11:34 PM 55.0 °F 55.0 °F 100% 29.90 in 10.0 mi West 9.2 mph - N/A   Scattered Clouds
11:54 PM 54.5 °F 54.5 °F 100% 29.90 in 10.0 mi West 5.8 mph - N/A   Clear